Regional Weather Roundup
Issued by NWS

Home | Current Version | Previous Version | Graphics & Text | Print | Product List | Glossary On
Versions: 1 2 3 4 5 6 7 8 9 10 11 12 13 14 15 16 17 18 19 20 21 22 23 24 25 26 27 28 29 30 31 32 33 34 35 36 37 38 39 40 41 42 43 44 45 46 47 48 49 50
000
ASUS43 KMPX 152210
RWRMN
WEATHER ROUNDUP FOR MINNESOTA
NATIONAL WEATHER SERVICE TWIN CITIES/CHANHASSEN MN
500 PM CDT MON SEP 15 2014


NOTE: "FAIR" INDICATES FEW OR NO CLOUDS BELOW 12,000 FEET WITH NO
SIGNIFICANT WEATHER AND/OR OBSTRUCTIONS TO VISIBILITY. N/A MEANS
CURRENT SKY AND/OR WEATHER CONDITIONS ARE NOT AVAILABLE.

MNZ060>063-068>070-152300-
   Twin Cities Metro

CITY           SKY/WX    TMP DP  RH WIND       PRES   REMARKS
TWIN CITIES    MOSUNNY   61  36  39 NW13      30.19S
ST PAUL        SUNNY     60  38  43 W12G17    30.19F
CRYSTAL        MOSUNNY   62  36  37 NW10      30.19S
BLAINE         MOSUNNY   63  37  39 NW8       30.19S
LAKEVILLE      SUNNY     59  37  44 NW6       30.19S
EDEN PRAIRIE   MOSUNNY   62  36  37 NW10G18   30.18F
SOUTH ST PAUL  MOSUNNY   62  36  38 N6        30.18S
LAKE ELMO      FAIR      61  39  44 NW7       30.19F
$$
MNZ001>005-007-008-013>017-022>024-027-028-152300-
   Northwest Minnesota

CITY           SKY/WX    TMP DP  RH WIND       PRES   REMARKS
BEMIDJI        PTSUNNY   60  36  40 W10       30.15F
HALLOCK        SUNNY     66  34  30 W12G17    30.08F
ROSEAU         SUNNY     63  32  31 W12       30.10F
WARROAD        MOSUNNY   61  37  41 W10       30.10F
THIEF RVR FALL PTSUNNY   63  36  36 SW9       30.12F
CROOKSTON      MOSUNNY   64  37  36 W13       30.13F
FOSSTON        PTSUNNY   64  36  34 W7G17     30.15F
DETROIT LAKES  MOSUNNY   61  36  39 W6        30.19F
MOORHEAD       MOSUNNY   64  28  25 W6G16     30.18S
PARK RAPIDS    SUNNY     60  31  33 NW10      30.17F
MAHNOMEN       MOCLDY    62  35  36 W13G21    30.16F
$$
MNZ006-009>011-018-025>026-152300-
   North Central Minnesota

CITY           SKY/WX    TMP DP  RH WIND       PRES   REMARKS
BAUDETTE       SUNNY     60  34  37 SW8       30.10F
FLAG ISLAND    MOSUNNY   61  36  39 SW7       30.07F
INTL FALLS     MOSUNNY   59  35  40 W12       30.10F
WASKISH        PTSUNNY   61  43  51 SW5       30.13F
BIG FORK       PTSUNNY   59  34  38 W6        30.14F
LONGVILLE      SUNNY     57  36  44 CALM      30.17S
GRAND RAPIDS   MOSUNNY   57  32  38 NW6       30.16F
CRANE LAKE     PTSUNNY   57  36  44 W6        30.13S
ORR            PTSUNNY   55  34  44 CALM      30.11S
COOK           PTSUNNY   57  36  44 SW9       30.13F
WALKER         MOCLDY    59  33  38 W10       30.16F
$$
MNZ012-019>021-037-152300-
   Northeast Minnesota

CITY           SKY/WX    TMP DP  RH WIND       PRES   REMARKS
DULUTH         MOSUNNY   57  34  41 NW8       30.14F
ELY            PTSUNNY   54  36  50 W5G16     30.12S
HIBBING        PTSUNNY   56  35  45 NW9       30.15F
EVELETH        MOSUNNY   54  34  47 NW6       30.15S
DULUTH HARBOR  MOSUNNY   59  37  44 NW6       30.16S
TWO HARBORS    MOSUNNY   55  36  47 NW5       30.12S
SILVER BAY     SUNNY     57  41  54 W5        30.11S
GRAND MARAIS     N/A     61  36  39 NW6       30.09R
G MARAIS ARPRT MOSUNNY   52  34  50 W8        30.11R
$$
MNZ029>031-032-039>041-046>048-054>057-064-152300-
   West Central Minnesota

CITY           SKY/WX    TMP DP  RH WIND       PRES   REMARKS
FERGUS FALLS   SUNNY     63  28  27 W6        30.20S
WHEATON        SUNNY     61  32  33 CALM      30.23S
MORRIS         SUNNY     63  32  31 CALM      30.20S
ALEXANDRIA     SUNNY     59  33  37 NW7       30.22S
ELBOW LAKE     FAIR      60  34  37 N7        30.20S
WADENA         SUNNY     59  34  38 NW6       30.18F
GLENWOOD       SUNNY     61  34  36 NW9       30.21S
APPLETON       SUNNY     63  30  29 NW5       30.21S
BENSON         SUNNY     63  36  36 NW3       30.21S
ORTONVILLE     SUNNY     63  30  29 N7        30.22S
MADISON        SUNNY     63  36  36 NW9       30.22S
WILLMAR        FAIR      63  36  36 N7        30.22S
$$
MNZ033>034-036-042>043-049>051-058-059-152300-
   Central Minnesota

CITY           SKY/WX    TMP DP  RH WIND       PRES   REMARKS
ST CLOUD       MOSUNNY   63  37  38 NW9       30.19S
SAUK CENTRE    FAIR      58  34  39 N3        30.20F
PAYNESVILLE    MOSUNNY   58  34  40 W8        30.20F
AITKIN         MOSUNNY   61  36  39 W3        30.17S
PINE RIVER     MOSUNNY   59  36  41 NW7       30.20S
BRAINERD       MOSUNNY   58  33  39 N9        30.19S
STAPLES        SUNNY     59  30  33 NW8       30.19S
LONG PRAIRIE   FAIR      59  34  38 NW7       30.20S
LITTLE FALLS   MOSUNNY   59  32  36 NW6       30.19S
LITCHFIELD     SUNNY     61  37  41 NW6       30.21S
BUFFALO        SUNNY     59  36  41 W9        30.21S
MAPLE LAKE     MOSUNNY   60  39  45 W6        30.20F
$$
MNZ037-044-045-052-053-152300-
   East Central Minnesota

CITY           SKY/WX    TMP DP  RH WIND       PRES   REMARKS
PRINCETON      SUNNY     61  37  41 NW9       30.19S
MORA           SUNNY     55  34  44 N7        30.20S
CAMBRIDGE      SUNNY     63  41  45 NW9       30.17S
RUSH CITY      SUNNY     59  38  45 NW9       30.19S
MOOSE LAKE     PTSUNNY   55  34  44 NW6       30.16S
HINCKLEY       FAIR      59  37  44 N8        30.18S
CLOQUET        MOSUNNY   55  32  41 NW8       30.16S
MCGREGOR       MOSUNNY   59  34  38 NW7       30.18S
$$
MNZ071>073-080-081-089-090-097-098-152300-
   Southwest Minnesota

CITY           SKY/WX    TMP DP  RH WIND       PRES   REMARKS
MONTEVIDEO     SUNNY     64  39  39 NW8       30.22S
GRANITE FALLS  SUNNY     61  38  42 W9        30.23S
CANBY          SUNNY     62  36  38 NW7       30.23F
MARSHALL       PTSUNNY   61  36  39 NW8       30.22S
REDWOOD FALLS  SUNNY     63  38  39 N8        30.21S
OLIVIA         SUNNY     61  37  41 NW9       30.20F
PIPESTONE      MOSUNNY   61  36  39 NW9         N/A
WINDOM         MOSUNNY   59  37  44 NW8       30.23S
WORTHINGTON    CLOUDY    59  37  44 N8        30.24S
JACKSON        MOSUNNY   59  37  44 VRB3      30.23S
TRACY          MOSUNNY   62  40  44 CALM      30.23S
SLAYTON        MOSUNNY   60  38  42 CALM      30.24S
$$
MNZ065>067-074>077-082>085-091>093-152300-
   South Central Minnesota

CITY           SKY/WX    TMP DP  RH WIND       PRES   REMARKS
MANKATO        SUNNY     61  36  39 N14       30.20S
NEW ULM        SUNNY     61  39  44 NW9       30.21S
ST JAMES       MOSUNNY   63  36  36 NW6       30.22S
FAIRMONT       SUNNY     63  36  36 NW5       30.21F
GLENCOE        SUNNY     61  36  38 W8        30.20S
FARIBAULT      MOSUNNY   61  39  44 CALM      30.20F
OWATONNA       PTSUNNY   57  41  54 NW8       30.20S
WASECA         MOSUNNY   59  34  38 N8        30.21F
ALBERT LEA     SUNNY     61  37  41 NW7       30.19F
$$
MNZ078>079-086>088-094>096-152300-
   Southeast Minnesota

CITY           SKY/WX    TMP DP  RH WIND       PRES   REMARKS
ROCHESTER      MOSUNNY   59  41  51 N8        30.20R
RED WING       PTSUNNY   63  36  36 NW9       30.17S
STANTON        PTSUNNY   61  40  45 NW7       30.18S
DODGE CENTER   MOSUNNY   59  43  55 N9        30.19S
WINONA         MOSUNNY   59  45  58 NW6       30.17S
AUSTIN         PTSUNNY   59  43  55 NW7       30.18F
PRESTON        CLOUDY    55  48  77 N7        30.18S
$$
ABBREVIATIONS USED IN REMARKS
   TC - TEMPERATURES IN CELSIUS
  WCI - WIND CHILL INDEX
   HX - HEAT INDEX
  VSB - VISIBILITY
$$



USA.gov is the U.S. government's official web portal to all federal, state and local government web resources and services.